This demonstration page uses our WeatherBlox Daily Observations layout. Learn more.

Hourly Observations for April 27, 2015

Temp ( °F °C ) Dew Point ( °F °C ) Humidity (%) Winds ( mph kmh ) Pressure ( in mb ) Visibility ( mi km ) Precip ( " mm )
12:15 am 00:15 Clear 41 5.1 38 3.2 88 88 NNE 7 11 30.15 1021 10 16.0934 0 0
12:35 am 00:35 Clear 41 5.1 38 3.4 89 89 NNE 6 9 30.15 1021 10 16.0934 0 0
12:55 am 00:55 Clear 42 5.8 39 3.7 87 87 N 5 7 30.15 1021 10 16.0934 0 0
1:15 am 01:15 Clear 41 5.2 38 3.1 86 86 NNE 5 7 30.18 1022 10 16.0934 0 0
1:35 am 01:35 Clear 39 4.1 37 2.5 89 89 NNE 6 9 30.18 1022 7 11.26538 0 0
1:55 am 01:55 Clear 39 3.8 36 2.3 90 90 N 6 9 30.18 1022 7 11.26538 0 0
2:15 am 02:15 Clear 39 4 36 2.3 89 89 N 7 11 30.18 1022 7 11.26538 0 0
2:35 am 02:35 Clear 40 4.5 37 2.7 88 88 N 7 11 30.15 1021 10 16.0934 0 0
2:55 am 02:55 Clear 39 3.9 36 2.1 88 88 N 3 6 30.18 1022 10 16.0934 0 0
3:15 am 03:15 Clear 37 2.7 34 1 89 89 Calm 30.21 1023 7 11.26538 0 0
3:35 am 03:35 Clear 37 2.5 34 1 90 90 N 5 7 30.21 1023 7 11.26538 0 0
3:55 am 03:55 Clear 37 2.9 34 1.2 89 89 N 6 9 30.21 1023 10 16.0934 0 0
4:15 am 04:15 Clear 37 2.7 33 0.7 87 87 N 8 13 30.21 1023 10 16.0934 0 0
4:35 am 04:35 Clear 36 2.2 33 0.5 89 89 NNE 8 13 30.21 1023 7 11.26538 0 0
4:55 am 04:55 Clear 36 2.3 33 0.7 89 89 N 6 9 30.21 1023 7 11.26538 0 0
5:15 am 05:15 Clear 37 2.7 34 0.9 88 88 N 5 7 30.21 1023 10 16.0934 0 0
5:35 am 05:35 Clear 37 2.5 33 0.5 87 87 N 3 6 30.21 1023 10 16.0934 0 0
5:55 am 05:55 Clear 35 1.5 32 0 90 90 N 3 6 30.21 1023 7 11.26538 0 0
6:15 am 06:15 Clear 35 1.6 32 0 89 89 N 5 7 30.21 1023 7 11.26538 0 0
6:35 am 06:35 Clear 35 1.7 32 0 89 89 N 6 9 30.21 1023 7 11.26538 0 0
6:55 am 06:55 Sunny 35 1.6 32 0 89 89 NNE 8 13 30.24 1024 7 11.26538 0 0
7:15 am 07:15 Sunny 36 2.1 33 0.3 88 88 N 7 11 30.24 1024 7 11.26538 0 0
7:35 am 07:35 Sunny 36 2.3 33 0.6 89 89 N 6 9 30.24 1024 7 11.26538 0 0
7:55 am 07:55 Sunny 38 3.3 35 1.6 89 89 N 7 11 30.24 1024 7 11.26538 0 0
8:15 am 08:15 Sunny 40 4.2 36 2.2 87 87 NNE 8 13 30.24 1024 10 16.0934 0 0
8:35 am 08:35 Sunny 41 5 37 3 87 87 NNE 8 13 30.21 1023 10 16.0934 0 0
8:55 am 08:55 Sunny 43 6.3 38 3.4 82 82 NNE 9 15 30.21 1023 10 16.0934 0 0
9:15 am 09:15 Sunny 46 7.5 39 4.1 79 79 NNE 10 17 30.18 1022 10 16.0934 0 0
9:35 am 09:35 Sunny 47 8.6 39 4.1 74 74 NE 9 15 30.21 1023 10 16.0934 0 0
9:55 am 09:55 Sunny 49 9.2 39 3.7 69 69 NE 9 15 30.21 1023 10 16.0934 0 0
10:15 am 10:15 Sunny 51 10.3 37 2.5 59 59 NE 9 15 30.21 1023 10 16.0934 0 0
10:35 am 10:35 Sunny 53 11.6 36 2.3 53 53 NE 8 13 30.18 1022 10 16.0934 0 0
10:55 am 10:55 Sunny 54 12 33 0.7 46 46 ENE 12 19 30.18 1022 10 16.0934 0 0
11:15 am 11:15 Sunny 55 12.7 32 -0.1 42 42 NE 12 19 30.18 1022 10 16.0934 0 0
11:35 am 11:35 Sunny 56 13.1 30 -1 38 38 ENE 13 20 30.18 1022 10 16.0934 0 0
11:55 am 11:55 Sunny 57 13.8 31 -0.6 37 37 NE 14 22 30.18 1022 10 16.0934 0 0
12:15 pm 12:15 Sunny 58 14.4 31 -0.7 36 36 NNE 12 19 30.18 1022 10 16.0934 0 0
12:35 pm 12:35 Sunny 58 14.2 31 -0.7 36 36 NE 20 31 30.18 1022 10 16.0934 0 0
12:55 pm 12:55 Sunny 58 14.5 31 -0.6 36 36 NNE 15 24 30.15 1021 10 16.0934 0 0
1:15 pm 13:15 Sunny 59 15 31 -0.8 34 34 E 16 26 30.15 1021 10 16.0934 0 0
1:35 pm 13:35 Sunny 60 15.8 33 0.3 35 35 E 13 20 30.15 1021 10 16.0934 0 0
1:55 pm 13:55 Sunny 60 15.5 32 -0.2 34 34 NE 16 26 30.12 1020 10 16.0934 0 0
2:15 pm 14:15 Sunny 60 15.3 33 0.3 36 36 ENE 17 28 30.12 1020 10 16.0934 0 0
2:35 pm 14:35 Sunny 60 15.8 33 0.5 36 36 NNE 17 28 30.12 1020 10 16.0934 0 0
2:55 pm 14:55 Sunny 61 16 33 0.3 35 35 ENE 12 19 30.12 1020 10 16.0934 0 0
3:15 pm 15:15 Sunny 61 16.1 32 0.1 34 34 NE 16 26 30.12 1020 10 16.0934 0 0
3:35 pm 15:35 Sunny 62 16.5 32 0 33 33 NNE 13 20 30.09 1019 10 16.0934 0 0
3:55 pm 15:55 Sunny 62 16.9 33 0.3 33 33 NE 14 22 30.09 1019 10 16.0934 0 0
4:15 pm 16:15 Sunny 63 17.1 32 -0.1 31 31 NE 12 19 30.09 1019 10 16.0934 0 0
4:35 pm 16:35 Sunny 63 17.2 31 -0.3 31 31 NE 14 22 30.09 1019 10 16.0934 0 0
4:55 pm 16:55 Sunny 64 17.5 32 -0.1 31 31 NE 16 26 30.06 1018 10 16.0934 0 0
5:15 pm 17:15 Sunny 63 17.2 32 0.2 32 32 NNE 10 17 30.09 1019 10 16.0934 0 0
5:35 pm 17:35 Sunny 63 17.3 32 0.2 32 32 NE 10 17 30.09 1019 10 16.0934 0 0
5:55 pm 17:55 Sunny 63 17.4 32 0.2 31 31 NE 15 24 30.09 1019 10 16.0934 0 0
6:15 pm 18:15 Sunny 63 17 32 0 32 32 NE 12 19 30.09 1019 10 16.0934 0 0
6:35 pm 18:35 Sunny 62 16.9 33 0.3 33 33 NE 10 17 30.09 1019 10 16.0934 0 0
6:55 pm 18:55 Sunny 62 16.5 32 0 33 33 E 12 19 30.09 1019 10 16.0934 0 0
7:15 pm 19:15 Sunny 61 16.3 32 0.1 33 33 ENE 12 19 30.09 1019 10 16.0934 0 0
7:35 pm 19:35 Sunny 61 16 33 0.5 35 35 ENE 8 13 30.09 1019 10 16.0934 0 0
7:55 pm 19:55 Sunny 59 15.1 34 1.1 39 39 E 7 11 30.09 1019 10 16.0934 0 0
8:15 pm 20:15 Sunny 56 13.5 35 1.4 44 44 E 6 9 30.09 1019 10 16.0934 0 0
8:35 pm 20:35 Clear 54 12.1 35 1.4 48 48 E 7 11 30.12 1020 10 16.0934 0 0
8:55 pm 20:55 Clear 53 11.5 34 1 49 49 E 6 9 30.15 1021 10 16.0934 0 0
9:15 pm 21:15 Clear 53 11.5 33 0.8 48 48 E 6 9 30.15 1021 10 16.0934 0 0
9:35 pm 21:35 Clear 52 11.1 33 0.4 48 48 E 5 7 30.15 1021 10 16.0934 0 0
9:55 pm 21:55 Clear 50 10.2 33 0.6 52 52 Calm 30.18 1022 10 16.0934 0 0
10:15 pm 22:15 Clear 50 10 34 1.2 55 55 Calm 30.21 1023 10 16.0934 0 0
10:35 pm 22:35 Clear 46 7.7 34 0.9 62 62 NW 3 6 30.21 1023 10 16.0934 0 0
10:55 pm 22:55 Clear 45 7 33 0.8 65 65 NNW 6 9 30.24 1024 10 16.0934 0 0
11:15 pm 23:15 Clear 44 6.7 33 0.4 64 64 NNW 3 6 30.24 1024 10 16.0934 0 0
11:35 pm 23:35 Clear 45 7.2 33 0.3 62 62 Calm 30.24 1024 10 16.0934 0 0
11:55 pm 23:55 Clear 45 7.1 32 0.1 61 61 Calm 30.24 1024 10 16.0934 0 0

Powered by AerisWeather